• In Netherlands
  • List of Countries
  • For 7 days
  • Water Temperature
  • Satellite Maps
  • Weather Map
  • Weather Widgets
  • user-avatar
    Login

    Hourly Weather Abovyan

    Today, 19 August, Saturday

    Time Temperature Precipitation Wind Pressure Humidity
    00:00 +23°C° 0.3 mm 2 mps 672 mmHg 67%
    01:00 +23°C° 0.2 mm 2 mps 672 mmHg 68%
    02:00 +23°C° 0.2 mm 2 mps 672 mmHg 69%
    03:00 +21°C° 0.2 mm 2 mps 672 mmHg 70%
    04:00 +21°C° 0 mm 2 mps 672 mmHg 71%
    05:00 +21°C° 0 mm 2 mps 672 mmHg 71%
    06:00 +21°C° 0 mm 2 mps 672 mmHg 71%
    07:00 +24°C° 0 mm 2 mps 673 mmHg 63%
    08:00 +26°C° 0 mm 2 mps 673 mmHg 54%
    09:00 +28°C° 0 mm 2 mps 674 mmHg 45%
    10:00 +30°C° 0 mm 2 mps 674 mmHg 41%
    11:00 +31°C° 0 mm 2 mps 674 mmHg 37%
    12:00 +33°C° 0 mm 3 mps 673 mmHg 33%
    13:00 +34°C° 0 mm 3 mps 673 mmHg 31%
    14:00 +34°C° 0 mm 3 mps 673 mmHg 29%
    15:00 +35°C° 0 mm 3 mps 673 mmHg 28%
    16:00 +34°C° 0 mm 3 mps 673 mmHg 31%
    17:00 +33°C° 0 mm 3 mps 673 mmHg 34%
    18:00 +31°C° 0 mm 3 mps 672 mmHg 38%
    19:00 +29°C° 0.1 mm 3 mps 673 mmHg 44%
    20:00 +27°C° 0.1 mm 3 mps 673 mmHg 51%
    21:00 +25°C° 0.1 mm 3 mps 673 mmHg 57%
    22:00 +24°C° 0 mm 3 mps 673 mmHg 57%
    23:00 +24°C° 0 mm 3 mps 673 mmHg 57%

    Tomorrow, 20 August, Sunday

    Time Temperature Precipitation Wind Pressure Humidity
    00:00 +22°C° 0 mm 3 mps 673 mmHg 57%
    01:00 +22°C° 0 mm 3 mps 673 mmHg 58%
    02:00 +21°C° 0 mm 2 mps 673 mmHg 58%
    03:00 +21°C° 0 mm 2 mps 673 mmHg 58%
    04:00 +20°C° 0 mm 2 mps 673 mmHg 59%
    05:00 +20°C° 0 mm 2 mps 673 mmHg 59%
    06:00 +20°C° 0 mm 2 mps 673 mmHg 59%
    07:00 +24°C° 0 mm 2 mps 673 mmHg 52%
    08:00 +26°C° 0 mm 2 mps 673 mmHg 45%
    09:00 +28°C° 0 mm 2 mps 674 mmHg 38%
    10:00 +30°C° 0 mm 2 mps 674 mmHg 34%
    11:00 +31°C° 0 mm 2 mps 673 mmHg 31%
    12:00 +34°C° 0 mm 3 mps 673 mmHg 28%
    13:00 +34°C° 0 mm 3 mps 673 mmHg 27%
    14:00 +35°C° 0 mm 3 mps 673 mmHg 26%
    15:00 +35°C° 0 mm 3 mps 672 mmHg 25%
    16:00 +34°C° 0 mm 3 mps 672 mmHg 28%
    17:00 +33°C° 0 mm 3 mps 672 mmHg 31%
    18:00 +31°C° 0 mm 3 mps 672 mmHg 34%
    19:00 +29°C° 0 mm 3 mps 672 mmHg 37%
    20:00 +27°C° 0 mm 3 mps 672 mmHg 41%
    21:00 +25°C° 0 mm 3 mps 672 mmHg 45%
    22:00 +24°C° 0 mm 3 mps 672 mmHg 44%
    23:00 +24°C° 0 mm 3 mps 672 mmHg 44%

    Day after tomorrow, 21 August, Monday

    Time Temperature Precipitation Wind Pressure Humidity
    00:00 +22°C° 0 mm 3 mps 672 mmHg 44%
    01:00 +21°C° 0 mm 2 mps 672 mmHg 45%
    02:00 +21°C° 0 mm 2 mps 672 mmHg 46%
    03:00 +20°C° 0 mm 2 mps 672 mmHg 47%
    04:00 +20°C° 0 mm 2 mps 672 mmHg 48%
    05:00 +20°C° 0 mm 2 mps 672 mmHg 49%
    06:00 +20°C° 0 mm 2 mps 672 mmHg 50%
    07:00 +24°C° 0 mm 2 mps 672 mmHg 44%
    08:00 +26°C° 0 mm 2 mps 672 mmHg 38%
    09:00 +29°C° 0 mm 1 mps 672 mmHg 32%
    10:00 +30°C° 0 mm 2 mps 672 mmHg 28%
    11:00 +32°C° 0 mm 2 mps 672 mmHg 25%
    12:00 +34°C° 0 mm 2 mps 672 mmHg 22%
    13:00 +35°C° 0 mm 2 mps 672 mmHg 20%
    14:00 +35°C° 0 mm 2 mps 672 mmHg 19%
    15:00 +36°C° 0 mm 2 mps 671 mmHg 17%
    16:00 +34°C° 0 mm 2 mps 671 mmHg 21%
    17:00 +32°C° 0 mm 2 mps 671 mmHg 25%
    18:00 +31°C° 0 mm 1 mps 670 mmHg 28%
    19:00 +29°C° 0 mm 2 mps 671 mmHg 33%
    20:00 +27°C° 0 mm 2 mps 671 mmHg 37%
    21:00 +25°C° 0 mm 3 mps 671 mmHg 42%
    22:00 +25°C° 0 mm 2 mps 671 mmHg 45%
    23:00 +24°C° 0 mm 2 mps 671 mmHg 48%

    22 August, Tuesday

    Time Temperature Precipitation Wind Pressure Humidity
    00:00 +23°C° 0 mm 2 mps 671 mmHg 52%
    01:00 +23°C° 0 mm 2 mps 670 mmHg 52%
    02:00 +23°C° 0 mm 2 mps 670 mmHg 53%
    03:00 +22°C° 0 mm 1 mps 670 mmHg 53%
    04:00 +22°C° 0 mm 1 mps 670 mmHg 51%
    05:00 +22°C° 0 mm 1 mps 670 mmHg 49%
    06:00 +22°C° 0 mm 1 mps 670 mmHg 46%
    07:00 +25°C° 0 mm 1 mps 671 mmHg 39%
    08:00 +28°C° 0 mm 2 mps 671 mmHg 32%
    09:00 +31°C° 0 mm 2 mps 672 mmHg 24%
    10:00 +32°C° 0 mm 2 mps 672 mmHg 22%
    11:00 +34°C° 0 mm 3 mps 671 mmHg 21%
    12:00 +36°C° 0 mm 3 mps 671 mmHg 19%
    13:00 +36°C° 0 mm 3 mps 671 mmHg 18%
    14:00 +37°C° 0 mm 3 mps 671 mmHg 18%
    15:00 +37°C° 0 mm 3 mps 670 mmHg 17%
    16:00 +36°C° 0 mm 2 mps 670 mmHg 21%
    17:00 +35°C° 0 mm 2 mps 670 mmHg 24%
    18:00 +34°C° 0 mm 2 mps 670 mmHg 27%
    19:00 +31°C° 0 mm 2 mps 670 mmHg 32%
    20:00 +29°C° 0 mm 3 mps 670 mmHg 37%
    21:00 +27°C° 0 mm 3 mps 670 mmHg 41%
    22:00 +26°C° 0 mm 3 mps 670 mmHg 43%
    23:00 +25°C° 0 mm 3 mps 670 mmHg 45%

    23 August, Wednesday

    Time Temperature Precipitation Wind Pressure Humidity
    00:00 +25°C° 0 mm 3 mps 670 mmHg 47%
    01:00 +24°C° 0 mm 3 mps 670 mmHg 48%
    02:00 +24°C° 0 mm 3 mps 670 mmHg 48%
    03:00 +23°C° 0 mm 2 mps 670 mmHg 49%
    04:00 +23°C° 0 mm 2 mps 670 mmHg 49%
    05:00 +23°C° 0 mm 2 mps 671 mmHg 49%
    06:00 +21°C° 0 mm 2 mps 671 mmHg 50%
    07:00 +25°C° 0 mm 2 mps 671 mmHg 43%
    08:00 +28°C° 0 mm 2 mps 672 mmHg 37%
    09:00 +30°C° 0 mm 2 mps 672 mmHg 31%
    10:00 +32°C° 0 mm 2 mps 672 mmHg 28%
    11:00 +34°C° 0 mm 2 mps 672 mmHg 25%
    12:00 +36°C° 0 mm 2 mps 672 mmHg 22%
    13:00 +36°C° 0 mm 2 mps 672 mmHg 22%
    14:00 +37°C° 0 mm 2 mps 672 mmHg 21%
    15:00 +37°C° 0 mm 2 mps 671 mmHg 20%
    16:00 +36°C° 0 mm 3 mps 671 mmHg 24%
    17:00 +35°C° 0 mm 3 mps 671 mmHg 27%
    18:00 +33°C° 0 mm 3 mps 671 mmHg 31%
    19:00 +30°C° 0 mm 3 mps 672 mmHg 35%
    20:00 +28°C° 0 mm 3 mps 672 mmHg 39%
    21:00 +26°C° 0 mm 4 mps 672 mmHg 43%
    22:00 +25°C° 0 mm 3 mps 672 mmHg 43%
    23:00 +25°C° 0 mm 3 mps 672 mmHg 43%

    24 August, Thursday

    Time Temperature Precipitation Wind Pressure Humidity
    00:00 +24°C° 0 mm 3 mps 672 mmHg 43%
    01:00 +22°C° 0 mm 3 mps 672 mmHg 44%
    02:00 +22°C° 0 mm 3 mps 672 mmHg 46%
    03:00 +21°C° 0 mm 3 mps 672 mmHg 47%
    04:00 +21°C° 0 mm 3 mps 672 mmHg 48%
    05:00 +21°C° 0 mm 2 mps 673 mmHg 49%
    06:00 +20°C° 0 mm 2 mps 673 mmHg 51%
    07:00 +24°C° 0 mm 2 mps 673 mmHg 45%
    08:00 +27°C° 0 mm 2 mps 673 mmHg 39%
    09:00 +29°C° 0 mm 2 mps 674 mmHg 33%
    10:00 +31°C° 0 mm 2 mps 674 mmHg 29%
    11:00 +34°C° 0 mm 2 mps 674 mmHg 26%
    12:00 +35°C° 0 mm 2 mps 674 mmHg 23%
    13:00 +36°C° 0 mm 2 mps 673 mmHg 22%
    14:00 +36°C° 0 mm 2 mps 673 mmHg 21%
    15:00 +37°C° 0 mm 3 mps 673 mmHg 20%
    16:00 +36°C° 0 mm 2 mps 673 mmHg 23%
    17:00 +34°C° 0 mm 2 mps 673 mmHg 26%
    18:00 +32°C° 0 mm 2 mps 672 mmHg 29%
    19:00 +30°C° 0 mm 3 mps 673 mmHg 32%
    20:00 +28°C° 0 mm 3 mps 673 mmHg 36%
    21:00 +26°C° 0 mm 3 mps 673 mmHg 39%
    22:00 +25°C° 0 mm 3 mps 673 mmHg 39%
    23:00 +25°C° 0 mm 3 mps 673 mmHg 39%
    Show more